| time (UTC) | temp C | wind direction | speed KPH | gust KPH | rain 1hr cm | rain 24hr cm | rain mn cm | humidity % | barometer mb |
| 20260508133247 | 12 | 171 | 4.8 | 8.0 | 0.00 | 0.00 | 0.00 | 62 | 1010.4 |
| 20260508133031 | 12 | 178 | 1.6 | 4.8 | 0.00 | 0.00 | 0.00 | 62 | 1009.6 |
| 20260508132728 | 12 | 178 | 3.2 | 8.0 | 0.00 | 0.00 | 0.00 | 62 | 1010.4 |
| 20260508132240 | 12 | 178 | 3.2 | 9.7 | 0.00 | 0.00 | 0.00 | 62 | 1010.4 |
| 20260508131724 | 12 | 175 | 6.4 | 11.3 | 0.00 | 0.00 | 0.00 | 61 | 1010.4 |
| 20260508131542 | 11 | 185 | 6.4 | 11.3 | 0.00 | 0.00 | 0.00 | 61 | 1009.6 |
| 20260508131232 | 12 | 189 | 6.4 | 11.3 | 0.00 | 0.00 | 0.00 | 60 | 1010.3 |
| 20260508130741 | 12 | 162 | 6.4 | 12.9 | 0.00 | 0.00 | 0.00 | 59 | 1010.2 |
| 20260508130310 | 12 | 157 | 8.0 | 11.3 | 0.00 | 0.00 | 0.00 | 58 | 1010.0 |
| 20260508130023 | 11 | 172 | 4.8 | 8.0 | 0.00 | 0.00 | 0.00 | 59 | 1009.2 |
| 20260508125731 | 11 | 172 | 4.8 | 8.0 | 0.00 | 0.00 | 0.00 | 58 | 1010.0 |
| 20260508125244 | 11 | 173 | 4.8 | 11.3 | 0.00 | 0.00 | 0.00 | 59 | 1009.9 |
| 20260508124727 | 11 | 218 | 6.4 | 11.3 | 0.00 | 0.00 | 0.00 | 58 | 1009.9 |
| 20260508124534 | 11 | 134 | 6.4 | 11.3 | 0.00 | 0.00 | 0.00 | 58 | 1009.1 |
| 20260508124243 | 11 | 158 | 8.0 | 11.3 | 0.00 | 0.00 | 0.00 | 58 | 1009.9 |
| 20260508123727 | 11 | 176 | 6.4 | 9.7 | 0.00 | 0.00 | 0.00 | 58 | 1009.9 |
| 20260508123235 | 11 | 158 | 3.2 | 12.9 | 0.00 | 0.00 | 0.00 | 58 | 1009.9 |
| 20260508123029 | 11 | 279 | 0.0 | 12.9 | 0.00 | 0.00 | 0.00 | 58 | 1009.1 |
| 20260508122805 | 11 | 301 | 6.4 | 12.9 | 0.00 | 0.00 | 0.00 | 60 | 1010.0 |
| 20260508122226 | 11 | 17 | 3.2 | 14.5 | 0.00 | 0.00 | 0.00 | 59 | 1009.9 |
| 20260508121739 | 10 | 13 | 6.4 | 14.5 | 0.00 | 0.00 | 0.00 | 60 | 1009.9 |
| 20260508121517 | 10 | 14 | 9.7 | 14.5 | 0.00 | 0.00 | 0.00 | 60 | 1009.2 |
| 20260508121252 | 10 | 309 | 8.0 | 12.9 | 0.00 | 0.00 | 0.00 | 60 | 1010.0 |
| 20260508120735 | 10 | 44 | 8.0 | 9.7 | 0.00 | 0.00 | 0.00 | 59 | 1009.8 |
| 20260508120246 | 10 | 348 | 6.4 | 14.5 | 0.00 | 0.00 | 0.00 | 59 | 1009.9 |
| 20260508120031 | 10 | 5 | 4.8 | 14.5 | 0.00 | 0.00 | 0.00 | 59 | 1009.0 |
| 20260508115725 | 10 | 355 | 9.7 | 14.5 | 0.00 | 0.00 | 0.00 | 59 | 1009.9 |
| 20260508115235 | 10 | 338 | 6.4 | 9.7 | 0.00 | 0.00 | 0.00 | 60 | 1010.0 |
| 20260508114748 | 10 | 355 | 6.4 | 9.7 | 0.00 | 0.00 | 0.00 | 60 | 1010.0 |
| 20260508114527 | 10 | 347 | 6.4 | 8.0 | 0.00 | 0.00 | 0.00 | 59 | 1009.2 |
| 20260508114231 | 10 | 5 | 8.0 | 8.0 | 0.00 | 0.00 | 0.00 | 59 | 1009.7 |
| 20260508113742 | 10 | 168 | 8.0 | 8.0 | 0.00 | 0.00 | 0.00 | 59 | 1009.7 |
| 20260508113224 | 10 | 168 | 6.4 | 8.0 | 0.00 | 0.00 | 0.00 | 58 | 1009.7 |
| 20260508113029 | 10 | 168 | 4.8 | 8.0 | 0.00 | 0.00 | 0.00 | 58 | 1008.9 |
| 20260508112739 | 10 | 168 | 6.4 | 8.0 | 0.00 | 0.00 | 0.00 | 58 | 1009.7 |
| 20260508112239 | 10 | 168 | 4.8 | 8.0 | 0.00 | 0.00 | 0.00 | 57 | 1009.7 |
| 20260508111739 | 10 | 168 | 4.8 | 8.0 | 0.00 | 0.00 | 0.00 | 57 | 1009.7 |
| 20260508111544 | 10 | 168 | 4.8 | 8.0 | 0.00 | 0.00 | 0.00 | 57 | 1009.0 |
| 20260508111301 | 10 | 168 | 6.4 | 9.7 | 0.00 | 0.00 | 0.00 | 57 | 1009.7 |
| 20260508110750 | 10 | 168 | 6.4 | 9.7 | 0.00 | 0.00 | 0.00 | 57 | 1009.8 |
| 20260508110306 | 10 | 168 | 8.0 | 9.7 | 0.00 | 0.00 | 0.00 | 57 | 1009.8 |
| 20260508110022 | 10 | 168 | 8.0 | 9.7 | 0.00 | 0.00 | 0.00 | 57 | 1009.0 |
| 20260508105731 | 10 | 168 | 6.4 | 8.0 | 0.00 | 0.00 | 0.00 | 57 | 1009.9 |
| 20260508105321 | 10 | 168 | 1.6 | 12.9 | 0.00 | 0.00 | 0.00 | 56 | 1009.8 |
| 20260508104728 | 10 | 168 | 8.0 | 14.5 | 0.00 | 0.00 | 0.00 | 56 | 1009.7 |
| 20260508104542 | 10 | 168 | 8.0 | 14.5 | 0.00 | 0.00 | 0.00 | 56 | 1008.9 |
| 20260508104241 | 11 | 163 | 8.0 | 14.5 | 0.00 | 0.00 | 0.00 | 55 | 1009.7 |
| 20260508103722 | 11 | 14 | 8.0 | 14.5 | 0.00 | 0.00 | 0.00 | 56 | 1010.0 |
| 20260508103235 | 11 | 20 | 9.7 | 14.5 | 0.00 | 0.00 | 0.00 | 56 | 1009.9 |
| 20260508103048 | 10 | 17 | 11.3 | 14.5 | 0.00 | 0.00 | 0.00 | 56 | 1009.2 |
| 20260508102743 | 11 | 10 | 11.3 | 16.1 | 0.00 | 0.00 | 0.00 | 57 | 1010.1 |
| 20260508102227 | 11 | 21 | 12.9 | 16.1 | 0.00 | 0.00 | 0.00 | 58 | 1010.2 |
| 20260508101740 | 11 | 12 | 11.3 | 14.5 | 0.00 | 0.00 | 0.00 | 56 | 1009.9 |
| 20260508101556 | 10 | 13 | 8.0 | 12.9 | 0.00 | 0.00 | 0.00 | 55 | 1009.2 |
| 20260508101249 | 11 | 9 | 6.4 | 9.7 | 0.00 | 0.00 | 0.00 | 56 | 1010.0 |
| 20260508100731 | 11 | 32 | 4.8 | 12.9 | 0.00 | 0.00 | 0.00 | 56 | 1010.1 |
| 20260508100259 | 11 | 5 | 9.7 | 12.9 | 0.00 | 0.00 | 0.00 | 57 | 1010.2 |
| 20260508100034 | 10 | 13 | 8.0 | 12.9 | 0.00 | 0.00 | 0.00 | 57 | 1009.4 |
| 20260508095722 | 11 | 17 | 9.7 | 14.5 | 0.00 | 0.00 | 0.00 | 59 | 1010.2 |
| 20260508095234 | 11 | 25 | 9.7 | 14.5 | 0.00 | 0.00 | 0.00 | 59 | 1010.2 |
| 20260508094744 | 11 | 19 | 9.7 | 12.9 | 0.00 | 0.00 | 0.00 | 56 | 1010.3 |
| 20260508094537 | 11 | 5 | 9.7 | 12.9 | 0.00 | 0.00 | 0.00 | 56 | 1009.7 |
| 20260508094229 | 11 | 355 | 8.0 | 12.9 | 0.00 | 0.00 | 0.00 | 56 | 1010.4 |
| 20260508093735 | 11 | 5 | 9.7 | 12.9 | 0.00 | 0.00 | 0.00 | 55 | 1010.4 |
| 20260508093247 | 11 | 5 | 8.0 | 9.7 | 0.00 | 0.00 | 0.00 | 53 | 1010.3 |
| 20260508093036 | 11 | 5 | 6.4 | 8.0 | 0.00 | 0.00 | 0.00 | 52 | 1009.6 |
| 20260508092729 | 12 | 201 | 6.4 | 6.4 | 0.00 | 0.00 | 0.00 | 51 | 1010.2 |
| 20260508092239 | 12 | 201 | 3.2 | 6.4 | 0.00 | 0.00 | 0.00 | 50 | 1010.2 |
| 20260508091750 | 12 | 201 | 3.2 | 6.4 | 0.00 | 0.00 | 0.00 | 50 | 1010.1 |
| 20260508091538 | 12 | 201 | 3.2 | 6.4 | 0.00 | 0.00 | 0.00 | 50 | 1009.5 |
| 20260508091236 | 12 | 202 | 1.6 | 4.8 | 0.00 | 0.00 | 0.00 | 50 | 1010.3 |
| 20260508090745 | 12 | 201 | 3.2 | 4.8 | 0.00 | 0.00 | 0.00 | 50 | 1010.3 |
| 20260508090225 | 12 | 201 | 0.0 | 6.4 | 0.00 | 0.00 | 0.00 | 49 | 1010.3 |
| 20260508090040 | 12 | 201 | 0.0 | 6.4 | 0.00 | 0.00 | 0.00 | 49 | 1009.7 |
| 20260508085752 | 12 | 201 | 4.8 | 6.4 | 0.00 | 0.00 | 0.00 | 48 | 1010.2 |
| 20260508085243 | 12 | 5 | 0.0 | 6.4 | 0.00 | 0.00 | 0.00 | 49 | 1010.3 |
| 20260508084726 | 12 | 5 | 1.6 | 6.4 | 0.00 | 0.00 | 0.00 | 49 | 1010.5 |
| 20260508084522 | 12 | 5 | 3.2 | 6.4 | 0.00 | 0.00 | 0.00 | 51 | 1009.7 |
| 20260508084240 | 12 | 360 | 4.8 | 8.0 | 0.00 | 0.00 | 0.00 | 50 | 1010.3 |
| 20260508083751 | 12 | 20 | 4.8 | 8.0 | 0.00 | 0.00 | 0.00 | 49 | 1010.1 |
| 20260508083301 | 12 | 204 | 4.8 | 6.4 | 0.00 | 0.00 | 0.00 | 48 | 1010.1 |
| 20260508083037 | 12 | 204 | 3.2 | 6.4 | 0.00 | 0.00 | 0.00 | 49 | 1009.4 |
| 20260508082725 | 13 | 204 | 1.6 | 6.4 | 0.00 | 0.00 | 0.00 | 48 | 1010.5 |
| 20260508082252 | 13 | 204 | 4.8 | 6.4 | 0.00 | 0.00 | 0.00 | 48 | 1010.2 |
| 20260508081742 | 13 | 204 | 3.2 | 6.4 | 0.00 | 0.00 | 0.00 | 48 | 1010.3 |
| 20260508081520 | 12 | 204 | 0.0 | 6.4 | 0.00 | 0.00 | 0.00 | 47 | 1009.8 |
| 20260508081256 | 13 | 204 | 3.2 | 6.4 | 0.00 | 0.00 | 0.00 | 46 | 1010.4 |
| 20260508080804 | 13 | 204 | 3.2 | 6.4 | 0.00 | 0.00 | 0.00 | 46 | 1010.6 |
| 20260508080225 | 13 | 204 | 0.0 | 11.3 | 0.00 | 0.00 | 0.00 | 47 | 1010.6 |
| 20260508080046 | 13 | 204 | 1.6 | 11.3 | 0.00 | 0.00 | 0.00 | 47 | 1010.1 |
| 20260508075731 | 13 | 204 | 8.0 | 11.3 | 0.00 | 0.00 | 0.00 | 46 | 1010.8 |
| 20260508075238 | 13 | 74 | 4.8 | 6.4 | 0.00 | 0.00 | 0.00 | 46 | 1010.6 |
| 20260508074809 | 13 | 120 | 1.6 | 3.2 | 0.00 | 0.00 | 0.00 | 46 | 1011.0 |
| 20260508074526 | 13 | 120 | 0.0 | 3.2 | 0.00 | 0.00 | 0.00 | 48 | 1010.4 |
| 20260508074232 | 13 | 120 | 1.6 | 4.8 | 0.00 | 0.00 | 0.00 | 46 | 1010.7 |
| 20260508073743 | 13 | 120 | 1.6 | 4.8 | 0.00 | 0.00 | 0.00 | 43 | 1010.8 |
| 20260508073226 | 13 | 120 | 3.2 | 9.7 | 0.00 | 0.00 | 0.00 | 43 | 1010.7 |
| 20260508073025 | 13 | 120 | 3.2 | 9.7 | 0.00 | 0.00 | 0.00 | 43 | 1010.0 |
| 20260508072737 | 13 | 120 | 4.8 | 9.7 | 0.00 | 0.00 | 0.00 | 43 | 1010.5 |
| 20260508072249 | 13 | 76 | 6.4 | 8.0 | 0.00 | 0.00 | 0.00 | 44 | 1010.3 |
| 20260508071727 | 13 | 52 | 1.6 | 9.7 | 0.00 | 0.00 | 0.00 | 43 | 1010.6 |
| 20260508071533 | 13 | 50 | 0.0 | 9.7 | 0.00 | 0.00 | 0.00 | 45 | 1010.0 |
| 20260508071240 | 13 | 34 | 6.4 | 9.7 | 0.00 | 0.00 | 0.00 | 46 | 1010.3 |
| 20260508070722 | 13 | 40 | 8.0 | 9.7 | 0.00 | 0.00 | 0.00 | 45 | 1010.3 |
| 20260508070234 | 13 | 26 | 6.4 | 8.0 | 0.00 | 0.00 | 0.00 | 44 | 1010.4 |
| 20260508070035 | 13 | 30 | 6.4 | 8.0 | 0.00 | 0.00 | 0.00 | 44 | 1009.8 |
| 20260508065746 | 13 | 52 | 6.4 | 8.0 | 0.00 | 0.00 | 0.00 | 43 | 1010.4 |
| 20260508065231 | 13 | 52 | 6.4 | 11.3 | 0.00 | 0.00 | 0.00 | 44 | 1010.4 |
| 20260508064742 | 13 | 38 | 8.0 | 11.3 | 0.00 | 0.00 | 0.00 | 46 | 1010.4 |
| 20260508064541 | 13 | 39 | 6.4 | 8.0 | 0.00 | 0.00 | 0.00 | 45 | 1009.8 |
| 20260508064228 | 13 | 53 | 6.4 | 8.0 | 0.00 | 0.00 | 0.00 | 44 | 1010.4 |
| 20260508063733 | 13 | 53 | 4.8 | 8.0 | 0.00 | 0.00 | 0.00 | 42 | 1010.6 |
| 20260508063245 | 13 | 54 | 6.4 | 8.0 | 0.00 | 0.00 | 0.00 | 42 | 1010.5 |
| 20260508063027 | 13 | 137 | 4.8 | 6.4 | 0.00 | 0.00 | 0.00 | 42 | 1010.0 |
| 20260508062728 | 13 | 137 | 4.8 | 6.4 | 0.00 | 0.00 | 0.00 | 43 | 1010.6 |
| 20260508062241 | 13 | 137 | 1.6 | 6.4 | 0.00 | 0.00 | 0.00 | 43 | 1010.7 |
| 20260508061724 | 13 | 137 | 3.2 | 6.4 | 0.00 | 0.00 | 0.00 | 43 | 1010.8 |
| 20260508061539 | 13 | 137 | 4.8 | 6.4 | 0.00 | 0.00 | 0.00 | 43 | 1010.2 |
| 20260508061237 | 14 | 137 | 6.4 | 6.4 | 0.00 | 0.00 | 0.00 | 43 | 1010.8 |
| 20260508060745 | 14 | 137 | 4.8 | 6.4 | 0.00 | 0.00 | 0.00 | 40 | 1010.8 |
| 20260508060229 | 14 | 91 | 3.2 | 6.4 | 0.00 | 0.00 | 0.00 | 39 | 1010.8 |
| 20260508060041 | 13 | 91 | 3.2 | 6.4 | 0.00 | 0.00 | 0.00 | 39 | 1010.1 |
| 20260508055738 | 14 | 91 | 4.8 | 6.4 | 0.00 | 0.00 | 0.00 | 40 | 1010.7 |
| 20260508055222 | 14 | 61 | 4.8 | 6.4 | 0.00 | 0.00 | 0.00 | 40 | 1010.6 |
| 20260508054733 | 14 | 57 | 4.8 | 6.4 | 0.00 | 0.00 | 0.00 | 40 | 1010.5 |
| 20260508054549 | 14 | 57 | 4.8 | 6.4 | 0.00 | 0.00 | 0.00 | 40 | 1009.8 |
| 20260508054244 | 14 | 57 | 4.8 | 8.0 | 0.00 | 0.00 | 0.00 | 40 | 1010.5 |
| 20260508053724 | 14 | 56 | 4.8 | 8.0 | 0.00 | 0.00 | 0.00 | 40 | 1010.4 |
| 20260508053236 | 14 | 57 | 4.8 | 8.0 | 0.00 | 0.00 | 0.00 | 40 | 1010.4 |
| 20260508053101 | 14 | 51 | 4.8 | 8.0 | 0.00 | 0.00 | 0.00 | 40 | 1009.8 |
| 20260508052746 | 14 | 53 | 6.4 | 8.0 | 0.00 | 0.00 | 0.00 | 40 | 1010.3 |
| 20260508052230 | 14 | 66 | 6.4 | 8.0 | 0.00 | 0.00 | 0.00 | 40 | 1010.4 |
| 20260508051737 | 14 | 58 | 6.4 | 8.0 | 0.00 | 0.00 | 0.00 | 40 | 1010.3 |
| 20260508051605 | 14 | 56 | 4.8 | 8.0 | 0.00 | 0.00 | 0.00 | 39 | 1009.8 |
| 20260508051249 | 14 | 50 | 6.4 | 9.7 | 0.00 | 0.00 | 0.00 | 39 | 1010.4 |
| 20260508050739 | 14 | 22 | 6.4 | 9.7 | 0.00 | 0.00 | 0.00 | 39 | 1010.4 |
| 20260508050248 | 14 | 24 | 6.4 | 8.0 | 0.00 | 0.00 | 0.00 | 40 | 1010.4 |
| 20260508050033 | 14 | 39 | 4.8 | 9.7 | 0.00 | 0.00 | 0.00 | 39 | 1010.0 |
| 20260508045749 | 14 | 42 | 6.4 | 9.7 | 0.00 | 0.00 | 0.00 | 39 | 1010.5 |
| 20260508045232 | 14 | 42 | 6.4 | 9.7 | 0.00 | 0.00 | 0.00 | 39 | 1010.6 |
| 20260508044743 | 14 | 49 | 6.4 | 8.0 | 0.00 | 0.00 | 0.00 | 38 | 1010.7 |
| 20260508044515 | 14 | 58 | 4.8 | 8.0 | 0.00 | 0.00 | 0.00 | 38 | 1010.2 |
| 20260508044232 | 14 | 58 | 4.8 | 6.4 | 0.00 | 0.00 | 0.00 | 38 | 1010.7 |
| 20260508043744 | 14 | 58 | 4.8 | 6.4 | 0.00 | 0.00 | 0.00 | 38 | 1010.8 |
| 20260508043228 | 14 | 62 | 4.8 | 8.0 | 0.00 | 0.00 | 0.00 | 37 | 1010.8 |
| 20260508043022 | 14 | 62 | 4.8 | 8.0 | 0.00 | 0.00 | 0.00 | 37 | 1010.3 |
| 20260508042739 | 15 | 62 | 4.8 | 8.0 | 0.00 | 0.00 | 0.00 | 37 | 1010.8 |
| 20260508042252 | 15 | 66 | 6.4 | 8.0 | 0.00 | 0.00 | 0.00 | 37 | 1010.7 |
| 20260508041743 | 15 | 71 | 6.4 | 8.0 | 0.00 | 0.00 | 0.00 | 37 | 1010.7 |
| 20260508041608 | 14 | 64 | 4.8 | 8.0 | 0.00 | 0.00 | 0.00 | 37 | 1010.2 |
| 20260508041514 | 14 | 65 | 4.8 | 8.0 | 0.00 | 0.00 | 0.00 | 37 | 1010.2 |
| 20260508041227 | 15 | 66 | 4.8 | 8.0 | 0.00 | 0.00 | 0.00 | 37 | 1010.8 |
| 20260508040733 | 15 | 67 | 6.4 | 11.3 | 0.00 | 0.00 | 0.00 | 37 | 1010.8 |
| 20260508040243 | 15 | 83 | 6.4 | 11.3 | 0.00 | 0.00 | 0.00 | 37 | 1010.8 |
| 20260508040010 | 14 | 92 | 6.4 | 11.3 | 0.00 | 0.00 | 0.00 | 37 | 1010.2 |
| 20260508035726 | 15 | 88 | 8.0 | 11.3 | 0.00 | 0.00 | 0.00 | 37 | 1010.7 |
| 20260508035237 | 15 | 86 | 6.4 | 11.3 | 0.00 | 0.00 | 0.00 | 37 | 1010.6 |
| 20260508034723 | 15 | 83 | 6.4 | 11.3 | 0.00 | 0.00 | 0.00 | 37 | 1010.5 |
| 20260508034526 | 15 | 68 | 6.4 | 9.7 | 0.00 | 0.00 | 0.00 | 36 | 1010.1 |
| 20260508034237 | 15 | 86 | 6.4 | 9.7 | 0.00 | 0.00 | 0.00 | 36 | 1010.6 |
| 20260508033746 | 15 | 82 | 6.4 | 9.7 | 0.00 | 0.00 | 0.00 | 36 | 1010.6 |
| 20260508033237 | 15 | 49 | 6.4 | 8.0 | 0.00 | 0.00 | 0.00 | 36 | 1010.7 |
| 20260508033009 | 15 | 49 | 4.8 | 6.4 | 0.00 | 0.00 | 0.00 | 36 | 1010.2 |
| 20260508032748 | 15 | 49 | 4.8 | 6.4 | 0.00 | 0.00 | 0.00 | 36 | 1010.8 |
| 20260508032238 | 15 | 49 | 4.8 | 6.4 | 0.00 | 0.00 | 0.00 | 36 | 1010.8 |
| 20260508031749 | 16 | 49 | 4.8 | 6.4 | 0.00 | 0.00 | 0.00 | 35 | 1010.7 |
| 20260508031532 | 15 | 49 | 4.8 | 6.4 | 0.00 | 0.00 | 0.00 | 35 | 1010.2 |
| 20260508031302 | 16 | 49 | 4.8 | 6.4 | 0.00 | 0.00 | 0.00 | 35 | 1010.7 |
| 20260508030723 | 16 | 49 | 4.8 | 8.0 | 0.00 | 0.00 | 0.00 | 35 | 1010.7 |
| 20260508030237 | 16 | 49 | 6.4 | 8.0 | 0.00 | 0.00 | 0.00 | 35 | 1010.7 |
| 20260508030019 | 16 | 49 | 4.8 | 8.0 | 0.00 | 0.00 | 0.00 | 35 | 1010.2 |
| 20260508025744 | 16 | 49 | 6.4 | 8.0 | 0.00 | 0.00 | 0.00 | 35 | 1010.7 |
| 20260508025225 | 16 | 49 | 6.4 | 8.0 | 0.00 | 0.00 | 0.00 | 34 | 1010.7 |
| 20260508024736 | 16 | 49 | 6.4 | 9.7 | 0.00 | 0.00 | 0.00 | 34 | 1010.6 |
| 20260508024525 | 16 | 49 | 4.8 | 9.7 | 0.00 | 0.00 | 0.00 | 34 | 1010.1 |
| 20260508024223 | 16 | 49 | 6.4 | 9.7 | 0.00 | 0.00 | 0.00 | 33 | 1010.5 |
| 20260508023736 | 16 | 44 | 4.8 | 8.0 | 0.00 | 0.00 | 0.00 | 33 | 1010.5 |
| 20260508023222 | 16 | 44 | 3.2 | 6.4 | 0.00 | 0.00 | 0.00 | 32 | 1010.5 |
| 20260508023030 | 16 | 32 | 3.2 | 8.0 | 0.00 | 0.00 | 0.00 | 32 | 1010.1 |
| 20260508022733 | 16 | 42 | 4.8 | 8.0 | 0.00 | 0.00 | 0.00 | 32 | 1010.5 |
| 20260508022244 | 17 | 26 | 4.8 | 8.0 | 0.00 | 0.00 | 0.00 | 32 | 1010.4 |
| 20260508021727 | 17 | 19 | 6.4 | 8.0 | 0.00 | 0.00 | 0.00 | 31 | 1010.3 |
| 20260508021530 | 17 | 10 | 4.8 | 8.0 | 0.00 | 0.00 | 0.00 | 31 | 1009.8 |
| 20260508021239 | 17 | 9 | 4.8 | 6.4 | 0.00 | 0.00 | 0.00 | 31 | 1010.2 |
| 20260508020750 | 17 | 9 | 3.2 | 6.4 | 0.00 | 0.00 | 0.00 | 31 | 1010.0 |
| 20260508020242 | 17 | 9 | 3.2 | 6.4 | 0.00 | 0.00 | 0.00 | 30 | 1010.0 |
| 20260508020058 | 17 | 9 | 4.8 | 6.4 | 0.00 | 0.00 | 0.00 | 30 | 1009.4 |
| 20260508015733 | 17 | 9 | 4.8 | 6.4 | 0.00 | 0.00 | 0.00 | 30 | 1009.9 |
| 20260508015246 | 18 | 5 | 4.8 | 8.0 | 0.00 | 0.00 | 0.00 | 30 | 1009.9 |
| 20260508014730 | 18 | 9 | 4.8 | 9.7 | 0.00 | 0.00 | 0.00 | 29 | 1009.9 |
| 20260508014600 | 18 | 355 | 4.8 | 9.7 | 0.00 | 0.00 | 0.00 | 30 | 1009.4 |
| 20260508014243 | 18 | 350 | 6.4 | 9.7 | 0.00 | 0.00 | 0.00 | 30 | 1009.8 |
| 20260508013809 | 18 | 355 | 6.4 | 9.7 | 0.00 | 0.00 | 0.00 | 29 | 1009.9 |
| 20260508013235 | 18 | 350 | 6.4 | 9.7 | 0.00 | 0.00 | 0.00 | 29 | 1009.8 |
| 20260508013044 | 18 | 355 | 6.4 | 9.7 | 0.00 | 0.00 | 0.00 | 28 | 1009.2 |
| 20260508012748 | 19 | 343 | 8.0 | 9.7 | 0.00 | 0.00 | 0.00 | 28 | 1009.7 |
| 20260508012233 | 19 | 355 | 6.4 | 9.7 | 0.00 | 0.00 | 0.00 | 28 | 1009.6 |
| 20260508011807 | 20 | 350 | 8.0 | 16.1 | 0.00 | 0.00 | 0.00 | 28 | 1009.6 |
| 20260508011524 | 20 | 5 | 6.4 | 16.1 | 0.00 | 0.00 | 0.00 | 28 | 1009.1 |
| 20260508011232 | 20 | 355 | 9.7 | 16.1 | 0.00 | 0.00 | 0.00 | 27 | 1009.5 |
| 20260508010744 | 20 | 360 | 11.3 | 16.1 | 0.00 | 0.00 | 0.00 | 27 | 1009.5 |
| 20260508010221 | 21 | 360 | 11.3 | 14.5 | 0.00 | 0.00 | 0.00 | 27 | 1009.5 |
| 20260508010029 | 20 | 360 | 8.0 | 14.5 | 0.00 | 0.00 | 0.00 | 27 | 1009.0 |
| 20260508005754 | 21 | 347 | 8.0 | 14.5 | 0.00 | 0.00 | 0.00 | 27 | 1009.4 |
| 20260508005245 | 21 | 345 | 6.4 | 9.7 | 0.00 | 0.00 | 0.00 | 26 | 1009.4 |
| 20260508004733 | 21 | 340 | 6.4 | 12.9 | 0.00 | 0.00 | 0.00 | 26 | 1009.4 |
| 20260508004514 | 21 | 316 | 6.4 | 20.9 | 0.00 | 0.00 | 0.00 | 26 | 1008.9 |
| 20260508004246 | 21 | 333 | 6.4 | 20.9 | 0.00 | 0.00 | 0.00 | 25 | 1009.2 |
| 20260508003728 | 21 | 327 | 12.9 | 22.5 | 0.00 | 0.00 | 0.00 | 25 | 1009.1 |
| 20260508003241 | 21 | 331 | 14.5 | 22.5 | 0.00 | 0.00 | 0.00 | 24 | 1009.2 |
| 20260508003022 | 21 | 321 | 14.5 | 22.5 | 0.00 | 0.00 | 0.00 | 24 | 1008.7 |
| 20260508002725 | 21 | 355 | 11.3 | 19.3 | 0.00 | 0.00 | 0.00 | 24 | 1009.2 |
| 20260508002234 | 21 | 305 | 11.3 | 25.7 | 0.00 | 0.00 | 0.00 | 23 | 1009.2 |
| 20260508001805 | 22 | 343 | 14.5 | 25.7 | 0.00 | 0.00 | 0.00 | 23 | 1009.1 |
| 20260508001503 | 21 | 317 | 12.9 | 20.9 | 0.00 | 0.00 | 0.00 | 23 | 1008.6 |
| 20260508001230 | 22 | 317 | 12.9 | 24.1 | 0.00 | 0.00 | 0.00 | 24 | 1009.1 |
| 20260508000740 | 22 | 334 | 16.1 | 25.7 | 0.00 | 0.00 | 0.00 | 24 | 1009.0 |
| 20260508000227 | 22 | 311 | 14.5 | 27.4 | 0.00 | 0.00 | 0.00 | 24 | 1009.0 |
| 20260508000011 | 22 | 325 | 14.5 | 27.4 | 0.00 | 0.00 | 0.00 | 24 | 1008.6 |
| 20260507235737 | 22 | 314 | 14.5 | 27.4 | 0.00 | 0.00 | 0.00 | 23 | 1009.0 |
| 20260507235249 | 22 | 304 | 17.7 | 32.2 | 0.00 | 0.00 | 0.00 | 24 | 1009.0 |
| 20260507234736 | 22 | 291 | 16.1 | 32.2 | 0.00 | 0.00 | 0.00 | 23 | 1009.0 |
| 20260507234505 | 22 | 321 | 20.9 | 32.2 | 0.00 | 0.00 | 0.00 | 23 | 1008.7 |
| 20260507234251 | 22 | 275 | 16.1 | 22.5 | 0.00 | 0.00 | 0.00 | 24 | 1009.1 |
| 20260507233741 | 22 | 292 | 11.3 | 19.3 | 0.00 | 0.00 | 0.00 | 25 | 1009.1 |
| 20260507233226 | 22 | 317 | 9.7 | 17.7 | 0.00 | 0.00 | 0.00 | 25 | 1009.0 |
| 20260507233044 | 22 | 302 | 11.3 | 25.7 | 0.00 | 0.00 | 0.00 | 25 | 1008.6 |
| 20260507232740 | 22 | 318 | 9.7 | 25.7 | 0.00 | 0.00 | 0.00 | 24 | 1009.0 |
| 20260507232224 | 22 | 324 | 19.3 | 25.7 | 0.00 | 0.00 | 0.00 | 24 | 1009.1 |
| 20260507231736 | 22 | 272 | 12.9 | 20.9 | 0.00 | 0.00 | 0.00 | 25 | 1009.0 |
| 20260507231552 | 22 | 292 | 9.7 | 20.9 | 0.00 | 0.00 | 0.00 | 27 | 1008.9 |
| 20260507231222 | 22 | 277 | 14.5 | 20.9 | 0.00 | 0.00 | 0.00 | 26 | 1009.1 |
| 20260507230749 | 22 | 331 | 9.7 | 27.4 | 0.00 | 0.00 | 0.00 | 27 | 1009.1 |
| 20260507230233 | 22 | 327 | 17.7 | 27.4 | 0.00 | 0.00 | 0.00 | 25 | 1009.0 |
| 20260507230052 | 22 | 330 | 17.7 | 27.4 | 0.00 | 0.00 | 0.00 | 27 | 1008.7 |
| 20260507225745 | 22 | 263 | 11.3 | 24.1 | 0.00 | 0.00 | 0.00 | 26 | 1009.0 |
| 20260507225227 | 22 | 342 | 14.5 | 25.7 | 0.00 | 0.00 | 0.00 | 27 | 1009.0 |
| 20260507224738 | 22 | 338 | 16.1 | 27.4 | 0.00 | 0.00 | 0.00 | 27 | 1009.0 |
| 20260507224559 | 22 | 343 | 17.7 | 27.4 | 0.00 | 0.00 | 0.00 | 26 | 1008.6 |
| 20260507224230 | 22 | 325 | 19.3 | 27.4 | 0.00 | 0.00 | 0.00 | 26 | 1009.1 |
| 20260507223740 | 22 | 312 | 12.9 | 25.7 | 0.00 | 0.00 | 0.00 | 27 | 1009.2 |
| 20260507223308 | 23 | 323 | 17.7 | 25.7 | 0.00 | 0.00 | 0.00 | 26 | 1009.2 |
| 20260507223022 | 22 | 324 | 9.7 | 24.1 | 0.00 | 0.00 | 0.00 | 27 | 1008.8 |
| 20260507222730 | 22 | 291 | 14.5 | 24.1 | 0.00 | 0.00 | 0.00 | 27 | 1009.2 |
| 20260507222245 | 22 | 319 | 19.3 | 25.7 | 0.00 | 0.00 | 0.00 | 26 | 1009.2 |
| 20260507221728 | 23 | 321 | 19.3 | 29.0 | 0.00 | 0.00 | 0.00 | 26 | 1009.2 |
| 20260507221529 | 22 | 315 | 17.7 | 30.6 | 0.00 | 0.00 | 0.00 | 26 | 1008.9 |
| 20260507221241 | 22 | 296 | 16.1 | 30.6 | 0.00 | 0.00 | 0.00 | 26 | 1009.2 |
| 20260507220724 | 23 | 338 | 20.9 | 30.6 | 0.00 | 0.00 | 0.00 | 25 | 1009.2 |
| 20260507220235 | 23 | 292 | 17.7 | 29.0 | 0.00 | 0.00 | 0.00 | 25 | 1009.2 |
| 20260507220031 | 23 | 298 | 11.3 | 32.2 | 0.00 | 0.00 | 0.00 | 26 | 1008.8 |
| 20260507215743 | 23 | 284 | 14.5 | 32.2 | 0.00 | 0.00 | 0.00 | 25 | 1009.2 |
| 20260507215227 | 23 | 278 | 20.9 | 37.0 | 0.00 | 0.00 | 0.00 | 24 | 1009.2 |
| 20260507214739 | 23 | 305 | 27.4 | 37.0 | 0.00 | 0.00 | 0.00 | 25 | 1009.1 |
| 20260507214538 | 22 | 294 | 20.9 | 35.4 | 0.00 | 0.00 | 0.00 | 24 | 1008.7 |
| 20260507214252 | 23 | 286 | 25.7 | 38.6 | 0.00 | 0.00 | 0.00 | 23 | 1009.1 |
| 20260507213743 | 23 | 275 | 24.1 | 38.6 | 0.00 | 0.00 | 0.00 | 22 | 1009.2 |
| 20260507213223 | 23 | 320 | 17.7 | 29.0 | 0.00 | 0.00 | 0.00 | 26 | 1009.2 |
| 20260507213020 | 23 | 309 | 14.5 | 32.2 | 0.00 | 0.00 | 0.00 | 28 | 1008.8 |
| 20260507212734 | 23 | 313 | 16.1 | 32.2 | 0.00 | 0.00 | 0.00 | 26 | 1009.3 |
| 20260507212246 | 23 | 305 | 22.5 | 41.8 | 0.00 | 0.00 | 0.00 | 26 | 1009.2 |
| 20260507211728 | 23 | 296 | 29.0 | 41.8 | 0.00 | 0.00 | 0.00 | 25 | 1009.1 |
| 20260507211526 | 23 | 302 | 27.4 | 38.6 | 0.00 | 0.00 | 0.00 | 26 | 1008.8 |
| 20260507211241 | 23 | 343 | 24.1 | 37.0 | 0.00 | 0.00 | 0.00 | 27 | 1009.2 |
| 20260507210725 | 23 | 344 | 16.1 | 37.0 | 0.00 | 0.00 | 0.00 | 27 | 1009.2 |
| 20260507210258 | 23 | 333 | 17.7 | 33.8 | 0.00 | 0.00 | 0.00 | 27 | 1009.4 |
| 20260507210058 | 22 | 305 | 9.7 | 32.2 | 0.00 | 0.00 | 0.00 | 27 | 1008.9 |
| 20260507210005 | 22 | 252 | 9.7 | 32.2 | 0.00 | 0.00 | 0.00 | 27 | 1008.9 |
| 20260507205722 | 23 | 250 | 17.7 | 32.2 | 0.00 | 0.00 | 0.00 | 28 | 1009.4 |
| 20260507205234 | 23 | 296 | 19.3 | 38.6 | 0.00 | 0.00 | 0.00 | 26 | 1009.3 |
| 20260507204746 | 23 | 292 | 27.4 | 38.6 | 0.00 | 0.00 | 0.00 | 24 | 1009.4 |
| 20260507204516 | 23 | 284 | 20.9 | 35.4 | 0.00 | 0.00 | 0.00 | 26 | 1009.1 |
| 20260507204231 | 23 | 293 | 20.9 | 35.4 | 0.00 | 0.00 | 0.00 | 25 | 1009.4 |
| 20260507203736 | 23 | 300 | 19.3 | 33.8 | 0.00 | 0.00 | 0.00 | 26 | 1009.5 |
| 20260507203221 | 23 | 319 | 22.5 | 33.8 | 0.00 | 0.00 | 0.00 | 23 | 1009.5 |
| 20260507203020 | 23 | 266 | 22.5 | 33.8 | 0.00 | 0.00 | 0.00 | 23 | 1009.1 |
| 20260507202732 | 23 | 290 | 20.9 | 33.8 | 0.00 | 0.00 | 0.00 | 26 | 1009.6 |
| 20260507202242 | 23 | 302 | 20.9 | 38.6 | 0.00 | 0.00 | 0.00 | 27 | 1009.6 |
| 20260507201727 | 23 | 229 | 12.9 | 38.6 | 0.00 | 0.00 | 0.00 | 28 | 1009.6 |
| 20260507201524 | 23 | 249 | 19.3 | 38.6 | 0.00 | 0.00 | 0.00 | 27 | 1009.3 |
| 20260507201242 | 23 | 284 | 16.1 | 33.8 | 0.00 | 0.00 | 0.00 | 29 | 1009.6 |
| 20260507200726 | 24 | 300 | 25.7 | 32.2 | 0.00 | 0.00 | 0.00 | 25 | 1009.6 |
| 20260507200253 | 24 | 323 | 20.9 | 30.6 | 0.00 | 0.00 | 0.00 | 25 | 1009.6 |
| 20260507200103 | 23 | 294 | 19.3 | 30.6 | 0.00 | 0.00 | 0.00 | 27 | 1009.3 |
| 20260507195803 | 23 | 297 | 16.1 | 35.4 | 0.00 | 0.00 | 0.00 | 31 | 1009.6 |
| 20260507195226 | 23 | 275 | 19.3 | 35.4 | 0.00 | 0.00 | 0.00 | 30 | 1009.7 |
| 20260507194739 | 23 | 290 | 17.7 | 32.2 | 0.00 | 0.00 | 0.00 | 31 | 1009.6 |
| 20260507194539 | 23 | 342 | 22.5 | 40.2 | 0.00 | 0.00 | 0.00 | 29 | 1009.3 |
| 20260507194224 | 23 | 289 | 20.9 | 40.2 | 0.00 | 0.00 | 0.00 | 30 | 1009.6 |
| 20260507193733 | 23 | 306 | 25.7 | 40.2 | 0.00 | 0.00 | 0.00 | 28 | 1009.5 |
| 20260507193246 | 23 | 238 | 17.7 | 30.6 | 0.00 | 0.00 | 0.00 | 28 | 1009.6 |
| 20260507193051 | 23 | 251 | 20.9 | 30.6 | 0.00 | 0.00 | 0.00 | 25 | 1009.2 |
| 20260507192729 | 23 | 262 | 20.9 | 29.0 | 0.00 | 0.00 | 0.00 | 29 | 1009.7 |
| 20260507192236 | 22 | 209 | 12.9 | 27.4 | 0.00 | 0.00 | 0.00 | 35 | 1009.7 |
| 20260507191748 | 22 | 317 | 12.9 | 33.8 | 0.00 | 0.00 | 0.00 | 31 | 1009.6 |
| 20260507191547 | 22 | 297 | 19.3 | 33.8 | 0.00 | 0.00 | 0.00 | 32 | 1009.3 |
| 20260507191233 | 23 | 244 | 25.7 | 37.0 | 0.00 | 0.00 | 0.00 | 33 | 1009.7 |
| 20260507190742 | 22 | 252 | 17.7 | 37.0 | 0.00 | 0.00 | 0.00 | 33 | 1009.6 |
| 20260507190226 | 22 | 263 | 14.5 | 30.6 | 0.00 | 0.00 | 0.00 | 34 | 1009.6 |
| 20260507190049 | 22 | 216 | 14.5 | 30.6 | 0.00 | 0.00 | 0.00 | 32 | 1009.4 |
| 20260507185737 | 21 | 279 | 22.5 | 32.2 | 0.00 | 0.00 | 0.00 | 34 | 1009.7 |
| 20260507185249 | 21 | 279 | 19.3 | 35.4 | 0.00 | 0.00 | 0.00 | 33 | 1009.8 |
| 20260507184730 | 23 | 238 | 22.5 | 33.8 | 0.00 | 0.00 | 0.00 | 31 | 1009.8 |
| 20260507184533 | 22 | 206 | 14.5 | 24.1 | 0.00 | 0.00 | 0.00 | 31 | 1009.7 |
| 20260507184302 | 23 | 257 | 9.7 | 22.5 | 0.00 | 0.00 | 0.00 | 37 | 1010.0 |
| 20260507183722 | 22 | 247 | 14.5 | 33.8 | 0.00 | 0.00 | 0.00 | 32 | 1010.0 |
| 20260507183235 | 21 | 267 | 14.5 | 30.6 | 0.00 | 0.00 | 0.00 | 35 | 1010.2 |
| 20260507183013 | 21 | 219 | 14.5 | 30.6 | 0.00 | 0.00 | 0.00 | 33 | 1009.9 |
| 20260507182745 | 22 | 284 | 19.3 | 30.6 | 0.00 | 0.00 | 0.00 | 34 | 1010.2 |
| 20260507182234 | 21 | 271 | 20.9 | 33.8 | 0.00 | 0.00 | 0.00 | 34 | 1010.2 |
| 20260507181746 | 21 | 254 | 24.1 | 33.8 | 0.00 | 0.00 | 0.00 | 34 | 1010.4 |
| 20260507181559 | 21 | 227 | 22.5 | 37.0 | 0.00 | 0.00 | 0.00 | 33 | 1010.2 |
| 20260507181228 | 21 | 238 | 24.1 | 37.0 | 0.00 | 0.00 | 0.00 | 33 | 1010.5 |
| 20260507180739 | 21 | 245 | 25.7 | 37.0 | 0.00 | 0.00 | 0.00 | 33 | 1010.5 |
| 20260507180223 | 21 | 259 | 17.7 | 46.7 | 0.00 | 0.00 | 0.00 | 35 | 1010.5 |
| 20260507180017 | 21 | 194 | 25.7 | 46.7 | 0.00 | 0.00 | 0.00 | 33 | 1010.2 |
| 20260507175733 | 21 | 215 | 20.9 | 38.6 | 0.00 | 0.00 | 0.00 | 36 | 1010.3 |
| 20260507175244 | 21 | 260 | 22.5 | 35.4 | 0.00 | 0.00 | 0.00 | 34 | 1010.5 |
| 20260507174726 | 21 | 260 | 24.1 | 38.6 | 0.00 | 0.00 | 0.00 | 33 | 1010.6 |
| 20260507174512 | 21 | 256 | 24.1 | 38.6 | 0.00 | 0.00 | 0.00 | 34 | 1010.4 |
| 20260507174238 | 21 | 259 | 22.5 | 38.6 | 0.00 | 0.00 | 0.00 | 32 | 1010.6 |
| 20260507173721 | 21 | 215 | 22.5 | 41.8 | 0.00 | 0.00 | 0.00 | 32 | 1010.7 |
| 20260507173309 | 21 | 234 | 30.6 | 41.8 | 0.00 | 0.00 | 0.00 | 31 | 1010.7 |
| 20260507173048 | 21 | 225 | 22.5 | 40.2 | 0.00 | 0.00 | 0.00 | 31 | 1010.4 |
| 20260507172729 | 21 | 234 | 20.9 | 40.2 | 0.00 | 0.00 | 0.00 | 31 | 1010.7 |
| 20260507172239 | 21 | 230 | 25.7 | 40.2 | 0.00 | 0.00 | 0.00 | 31 | 1010.7 |
| 20260507171722 | 21 | 241 | 20.9 | 40.2 | 0.00 | 0.00 | 0.00 | 32 | 1010.8 |
| 20260507171559 | 21 | 219 | 22.5 | 40.2 | 0.00 | 0.00 | 0.00 | 32 | 1010.6 |
| 20260507171236 | 21 | 201 | 20.9 | 38.6 | 0.00 | 0.00 | 0.00 | 31 | 1010.8 |
| 20260507170806 | 21 | 221 | 19.3 | 33.8 | 0.00 | 0.00 | 0.00 | 32 | 1011.0 |
| 20260507170227 | 21 | 199 | 20.9 | 40.2 | 0.00 | 0.00 | 0.00 | 31 | 1011.1 |
| 20260507170031 | 20 | 212 | 22.5 | 40.2 | 0.00 | 0.00 | 0.00 | 30 | 1010.9 |
| 20260507165734 | 20 | 225 | 12.9 | 37.0 | 0.00 | 0.00 | 0.00 | 33 | 1011.2 |
| 20260507165246 | 21 | 227 | 22.5 | 37.0 | 0.00 | 0.00 | 0.00 | 33 | 1011.3 |
| 20260507164730 | 20 | 211 | 20.9 | 32.2 | 0.00 | 0.00 | 0.00 | 34 | 1011.3 |
| 20260507164539 | 20 | 217 | 17.7 | 32.2 | 0.00 | 0.00 | 0.00 | 32 | 1011.1 |
| 20260507164244 | 20 | 213 | 22.5 | 35.4 | 0.00 | 0.00 | 0.00 | 30 | 1011.3 |
| 20260507163724 | 20 | 167 | 17.7 | 35.4 | 0.00 | 0.00 | 0.00 | 32 | 1011.3 |
| 20260507163234 | 20 | 200 | 22.5 | 35.4 | 0.00 | 0.00 | 0.00 | 33 | 1011.4 |
| 20260507163036 | 19 | 229 | 17.7 | 30.6 | 0.00 | 0.00 | 0.00 | 34 | 1011.3 |
| 20260507162745 | 19 | 214 | 19.3 | 33.8 | 0.00 | 0.00 | 0.00 | 34 | 1011.6 |
| 20260507162226 | 19 | 236 | 20.9 | 33.8 | 0.00 | 0.00 | 0.00 | 36 | 1011.6 |
| 20260507161753 | 18 | 215 | 20.9 | 32.2 | 0.00 | 0.00 | 0.00 | 35 | 1011.7 |
| 20260507161519 | 18 | 213 | 20.9 | 32.2 | 0.00 | 0.00 | 0.00 | 37 | 1011.7 |
| 20260507161224 | 18 | 225 | 20.9 | 32.2 | 0.00 | 0.00 | 0.00 | 39 | 1011.7 |
| 20260507160732 | 18 | 216 | 20.9 | 32.2 | 0.00 | 0.00 | 0.00 | 38 | 1011.8 |
| 20260507160243 | 19 | 221 | 19.3 | 32.2 | 0.00 | 0.00 | 0.00 | 41 | 1012.0 |
| 20260507160050 | 18 | 200 | 19.3 | 32.2 | 0.00 | 0.00 | 0.00 | 43 | 1011.9 |
| 20260507155726 | 18 | 231 | 17.7 | 25.7 | 0.00 | 0.00 | 0.00 | 41 | 1012.1 |
| 20260507155238 | 17 | 216 | 14.5 | 25.7 | 0.00 | 0.00 | 0.00 | 44 | 1012.2 |
| 20260507154722 | 17 | 219 | 16.1 | 25.7 | 0.00 | 0.00 | 0.00 | 45 | 1012.2 |
| 20260507154543 | 17 | 242 | 17.7 | 25.7 | 0.00 | 0.00 | 0.00 | 46 | 1012.1 |
| 20260507154230 | 17 | 239 | 17.7 | 27.4 | 0.00 | 0.00 | 0.00 | 47 | 1012.2 |
| 20260507153737 | 17 | 220 | 16.1 | 33.8 | 0.00 | 0.00 | 0.00 | 45 | 1012.2 |
| 20260507153249 | 17 | 244 | 19.3 | 33.8 | 0.00 | 0.00 | 0.00 | 44 | 1012.3 |
| 20260507153046 | 17 | 230 | 19.3 | 25.7 | 0.00 | 0.00 | 0.00 | 44 | 1012.2 |
| 20260507152731 | 17 | 186 | 14.5 | 25.7 | 0.00 | 0.00 | 0.00 | 47 | 1012.3 |
| 20260507152242 | 17 | 211 | 12.9 | 25.7 | 0.00 | 0.00 | 0.00 | 48 | 1012.3 |
| 20260507151725 | 16 | 239 | 19.3 | 24.1 | 0.00 | 0.00 | 0.00 | 47 | 1012.4 |
| 20260507151550 | 16 | 254 | 17.7 | 24.1 | 0.00 | 0.00 | 0.00 | 46 | 1012.3 |
| 20260507151239 | 17 | 193 | 17.7 | 24.1 | 0.00 | 0.00 | 0.00 | 48 | 1012.4 |
| 20260507150744 | 16 | 232 | 12.9 | 25.7 | 0.00 | 0.00 | 0.00 | 52 | 1012.4 |
| 20260507150227 | 16 | 235 | 16.1 | 25.7 | 0.00 | 0.00 | 0.00 | 51 | 1012.5 |
| 20260507150052 | 15 | 250 | 16.1 | 25.7 | 0.00 | 0.00 | 0.00 | 52 | 1012.4 |
| 20260507145738 | 16 | 225 | 16.1 | 29.0 | 0.00 | 0.00 | 0.00 | 52 | 1012.6 |
| 20260507145220 | 15 | 214 | 12.9 | 29.0 | 0.00 | 0.00 | 0.00 | 53 | 1012.6 |
| 20260507144734 | 15 | 225 | 16.1 | 25.7 | 0.00 | 0.00 | 0.00 | 56 | 1012.6 |
| 20260507144616 | 15 | 221 | 14.5 | 25.7 | 0.00 | 0.00 | 0.00 | 55 | 1012.5 |
| 20260507144246 | 15 | 211 | 11.3 | 25.7 | 0.00 | 0.00 | 0.00 | 54 | 1012.6 |
| 20260507143726 | 15 | 192 | 16.1 | 27.4 | 0.00 | 0.00 | 0.00 | 56 | 1012.7 |
| 20260507143235 | 15 | 228 | 20.9 | 27.4 | 0.00 | 0.00 | 0.00 | 55 | 1012.7 |
| 20260507143052 | 14 | 222 | 19.3 | 27.4 | 0.00 | 0.00 | 0.00 | 56 | 1012.7 |
| 20260507142742 | 14 | 250 | 20.9 | 29.0 | 0.00 | 0.00 | 0.00 | 57 | 1012.7 |
| 20260507142223 | 14 | 214 | 14.5 | 29.0 | 0.00 | 0.00 | 0.00 | 57 | 1012.8 |
| 20260507141754 | 13 | 221 | 17.7 | 25.7 | 0.00 | 0.00 | 0.00 | 58 | 1012.8 |
| 20260507141520 | 13 | 223 | 16.1 | 29.0 | 0.00 | 0.00 | 0.00 | 60 | 1012.8 |
| 20260507141246 | 13 | 227 | 14.5 | 29.0 | 0.00 | 0.00 | 0.00 | 59 | 1012.9 |
| 20260507140728 | 13 | 220 | 16.1 | 24.1 | 0.00 | 0.00 | 0.00 | 60 | 1012.9 |
| 20260507140238 | 13 | 228 | 16.1 | 29.0 | 0.00 | 0.00 | 0.00 | 62 | 1012.9 |
| 20260507140020 | 12 | 216 | 17.7 | 30.6 | 0.00 | 0.00 | 0.00 | 61 | 1013.0 |
| 20260507135750 | 13 | 238 | 17.7 | 30.6 | 0.00 | 0.00 | 0.00 | 62 | 1013.0 |
| 20260507135236 | 12 | 229 | 19.3 | 32.2 | 0.00 | 0.00 | 0.00 | 62 | 1013.0 |
| 20260507134747 | 12 | 223 | 19.3 | 32.2 | 0.00 | 0.00 | 0.00 | 63 | 1013.0 |
| 20260507134600 | 12 | 239 | 16.1 | 27.4 | 0.00 | 0.00 | 0.00 | 63 | 1013.0 |
| 20260507134232 | 12 | 243 | 16.1 | 27.4 | 0.00 | 0.00 | 0.00 | 64 | 1013.1 |
| 20260507133742 | 12 | 234 | 16.1 | 27.4 | 0.00 | 0.00 | 0.00 | 66 | 1013.1 |